Regional Weather Roundup
Issued by NWS Wakefield, VA

Home | Current Version | Previous Version | Graphics & Text | Print | Product List | Glossary On
Versions: 1 2 3 4 5 6 7 8 9 10 11 12 13 14 15 16 17 18 19 20 21 22 23 24 25 26 27 28 29 30 31 32 33 34 35 36 37 38 39 40 41 42 43 44 45 46 47 48 49 50
000
ASUS41 KAKQ 231915
RWRAKQ

REGIONAL WEATHER ROUNDUP
NATIONAL WEATHER SERVICE WAKEFIELD VA
200 PM EST MON JAN 23 2017

Note: "fair" indicates few or no clouds below 12,000 feet with no
significant weather and/or obstructions to visibility. * = Denotes
station may not report precipitation (e.g., rain,snow,etc.),
thunder or fog.

VAZ042-051-052>054-056-232000-
NORTHERN VIRGINIA

CITY           SKY/WX    TMP DP  RH WIND       PRES   REMARKS
WASH NATIONAL  HVY RAIN  43  41  93 NE14      29.47R FOG
DULLES         LGT RAIN  40  38  93 NE10      29.49R FOG
FORT BELVOIR   RAIN      43  39  87 VRB7      29.43F
QUANTICO       LGT RAIN  44  43  96 NE15      29.44R FOG
FREDERICKSBRG* RAIN      45  45 100 N14G22    29.41R
STAFFORD*      RAIN      43  43 100 N8        29.47R
WARRENTON      RAIN      43  39  87 N9G16     29.46R
CULPEPER*      RAIN      43  42  95 N8        29.48R
MANASSAS*      RAIN     N/A N/A N/A NE14G23   29.47F VSB 1
LEESBURG*      MIX PCPN  41  41 100 NE5       29.52R VSB 3/4
WINCHESTER     HVY RAIN  36  34  93 NE6       29.51R
FRONT ROYAL*   CLOUDY    37  36  93 NE10      29.49R
LURAY*         RAIN      37  37 100 N14G20      N/A
$$

VAZ048-049-060>072-079>083-232000-
CENTRAL AND SOUTH CENTRAL VIRGINIA

CITY           SKY/WX    TMP DP  RH WIND       PRES   REMARKS
RICHMOND       LGT RAIN  50  49  96 N14G23    29.28F FOG
CHESTERFIELD*  CLOUDY    52  36  54 N13       29.28F
PETERSBURG*    LGT RAIN  52  52 100 NE14G20   29.26S
HANOVER        CLOUDY    48  45  89 N8G16     29.32F FOG
TAPPAHANNOCK*  RAIN      49  49 100 N16       29.31F
QUINTON*       CLOUDY    51  51 100 N9        29.26F FOG
CHARLOTTSVILLE CLOUDY    45  41  86 N17G30    29.39F
GORDONSVILLE*  CLOUDY    43  41  94 N16G29    29.38F
ORANGE*        LGT RAIN  43  43 100 N21G28    29.42F
LOUISA*        CLOUDY    48  46  93 N13G23    29.35F
BUMPASS*       CLOUDY    45  45 100 N9G16     29.35F
FARMVILLE*     LGT RAIN  48  47  95 N13G24    29.31R
CREWE*         CLOUDY    49  49 100 N6        29.28S
FORT PICKETT*  CLOUDY   N/A N/A N/A NW10G16   29.26F
CHASE CITY*    CLOUDY    52  51  95 N9G16     29.27S
CLARKSVILLE*   CLOUDY    54  54 100 N7        29.25F
SOUTH HILL*    PTSUNNY   60  54  78 NW3       29.29F
LAWRENCEVILLE* CLOUDY    61  51  71 MISG      29.23F
EMPORIA*       PTSUNNY   61  52  72 W6        29.25R
$$

VAZ088>098-232000-
SOUTHEAST VIRGINIA

CITY           SKY/WX    TMP DP  RH WIND       PRES   REMARKS
NORFOLK        PTSUNNY   57  52  83 NE6       29.21R
VIRGINIA BEACH PTSUNNY   63  52  67 SW8       29.21S
NORFOLK NAVAL  CLOUDY    58  53  84 N6        29.24R
WEST POINT*    CLOUDY    52  51  96 NE13G22   29.28R
SALUDA*        CLOUDY    51  51  99 NE13G21   29.26F
NEWPORT NEWS   CLOUDY    55  53  93 NE8       29.24S FOG
LANGLEY AFB    CLOUDY    55  55 100 N6        29.23R
FORT EUSTIS    NOT AVBL
WILLIAMSBURG*  CLOUDY    55  55 100 CALM      29.25S
HR EXEC AP*    MOCLDY    64  54  68 SW8       29.21R
FRANKLIN*      MOSUNNY   62  50  65 W7        29.23S
US460-WAKEFLD  PTSUNNY   61  56  83 VRB7      29.24R
$$

VAZ020-022-025-037-045-232000-
WEST CENTRAL AND SOUTHWEST VIRGINIA

CITY           SKY/WX    TMP DP  RH WIND       PRES   REMARKS
STAUNTON*      CLOUDY    40  37  91 N16G24    29.44S
WAYNESBORO*    CLOUDY    40  39  95 N9G22     29.40F
HOT SPRINGS VA FOG       30  30 100 E15G24    29.30R VSB 1/2 WCI  19
LYNCHBURG      LGT RAIN  45  43  93 NE17G29   29.34R FOG
DANVILLE       CLOUDY    50  50 100 N14       29.28F
SOUTH BOSTON*  CLOUDY    51  50  95 N8        29.28S
MARTINSVILLE   LGT RAIN  48  46  93 N8        29.33S
ROANOKE        LGT RAIN  47  43  86 N7        29.35S
BLACKSBURG     CLOUDY    45  42  90 NE8       29.34S
DUBLIN*        CLOUDY    48  45  90 NE10      29.33S
MARION*        DRIZZLE   49  46  90 CALM      29.34S
HILLSVILLE*    LGT RAIN  46  46 100 CALM      29.28S
RICHLANDS*     DRIZZLE   45  45 100 N5        29.34R
WISE*          DRIZZLE   46  46 100 N7        29.37R
ABINGDON*      LGT RAIN  49  46  88 NW3       29.34R
$$

MDZ021>025-VAZ099-100-232000-
SOUTHERN MARYLAND AND THE DELMARVA PENINSULA

CITY           SKY/WX    TMP DP  RH WIND       PRES   REMARKS
PATUXENT RIVER CLOUDY    47  44  90 NE30G39   29.35F
BAY BRIDGE APT HVY RAIN  41  39  93 NE16G30   29.41F FOG
LEONARDTOWN    CLOUDY    45  43  93 NE10G23   29.38S
DOVER          HVY RAIN  42  42 100 NE18G39   29.42F FOG
GEORGETOWN     RAIN      46  32  58 NE20G36   29.44R
EASTON         RAIN      43  41  93 E26G38    29.42S VSB 3/4
CAMBRIDGE      CLOUDY    43  41  93 NE18G31   29.37F
SALISBURY      LGT RAIN  47  46  97 NE24G31   29.35F FOG
OCEAN CITY     CLOUDY    49  48  97 E20G30    29.33S FOG
WALLOPS ISLAND CLOUDY    51  51 100 NE13G29   29.31S FOG
ACCOMACK*      CLOUDY    53  52  94 NE22      29.24F FOG
$$

NCZ012>017-030>032-232000-
NORTH CENTRAL AND EASTERN NORTH CAROLINA

CITY           SKY/WX    TMP DP  RH WIND       PRES   REMARKS
ROANOKE RAPIDS FAIR      63  48  59 SW10      29.24R
RALEIGH        CLOUDY    59  46  62 NW5       29.24F
ELIZABETH CITY CLOUDY    62  51  67 SW7       29.24F
AHOSKIE*         N/A     64  48  56 CALM      29.25R
EDENTON*       CLOUDY    65  50  58 SW8       29.26S
CURRITUCK*     CLOUDY    63  52  67 SW7       29.23F
KILL DEVIL HLS NOT AVBL
MANTEO         CLOUDY    60  49  65 W8        29.25F
CAPE HATTERAS  CLOUDY    60  53  77 W6        29.26F HAZE
TARBORO*       NOT AVBL
GOLDSBORO      MOSUNNY   64  47  55 W9        29.22S
WASHINGTON     MOSUNNY   64  47  53 NW5         N/A
GREENVILLE     MOSUNNY   66  46  48 SW8       29.30R
NEW BERN       MOSUNNY   65  47  52 SW7       29.24F
WILMINGTON     CLOUDY    62  46  55 SW10      29.22S
$$

VAZ048-232000-
ELSEWHERE

CITY           SKY/WX    TMP DP  RH WIND       PRES   REMARKS
HARRISBURG PA  LGT RAIN  39  35  86 E16G22    29.55F FOG
BALTIMORE      HVY RAIN  40  39  97 NE25G38   29.44F FOG
ANNAPOLIS      RAIN      43  39  86 VRB7G23   29.46R FOG
ANDREWS AFB    RAIN      41  39  93 NE17G28   29.42R FOG
PHILADELPHIA   LGT RAIN  39  36  89 NE24G43   29.55F FOG
HENDERSON NC   CLOUDY    58  42  55 W7        29.24F
GREENSBORO     PTSUNNY   54  47  77 W5        29.27S
ROCKY MOUNT    SUNNY     62  48  60 W7        29.24F
$$

VAZ100-232000-
MARINE

STATION/POSITION TIME  TEMP    WIND        PRES    WAVE   SWELL
                       AIR SEA DIR/SP/G            HT/PER HT/PER
                 (UTC) (F)     (DEG/KT/KT) (MB)    (FT/S) (FT/S)
CAPE MAY NJ      1842   44 44   50/ 11/ 23  994.9R
LEWES DE         1848      43   70/ 41/ 55  993.5F
OCEAN-CITY-INLET 1848      44   80/ 16/ 24  993.7R
WACHAPREAGUE VA  1842   52 49   30/ 11/ 26  990.3F
THOMAS POINT MD  1900   42 40   50/ 22/ 26   N/A
GOOSES REEF MD   1900   43      90/ 19/ 27  996.2    4/ 4
COVE POINT MD    1842   45      70/ 24/ 27  995.1R
SOLOMONS ISLAND  1848      42   40/ 17/ 26   N/A
BISHOPS HEAD MD  1842   47 44   50/ 20/ 32  993.1F
PINEY POINT MD   1848           70/ 18/ 23   N/A
POTOMAC MD       1900   46 42   50/ 21/ 27  991.2    2/ 3
CAMBRIDGE MD     1842   44 43   60/ 23/ 31  994.5R
LEWISETTA VA     1842   47 44   50/  8/ 15  992.4F
RAPPAHANNOCK LGT 1848           60/ 21/ 23  990.3F
STINGRAY PT      1850   49     350/  8/ 17  991.4F
YORK RVR RNG VA  1842   50      50/ 16/ 18  988.7F
YORKTOWN VA      1842   53 44   60/  5/  8  989.4F
JAMESTOWN VA     1900   54 48   20/  6/ 10   N/A     0
DOMINION TERM VA 1842   54     330/  9/ 10  989.3F
CHES BAY BRIDGE  1836   50 46   60/  5/  6  989.1S
CAPE HENRY VA    1836   55      10/  2/  5   N/A
WILLOUBY STN VA  1836   53      20/  7/  9  990.2F
S CRANEY ISL VA  1836   59     340/  5/  6  988.9F
CAPE HENRY BUOY  1842      48                N/A     9/11   5/11
OFFSHORE WE BUOY 1851      48                N/A    11/10   5/11
64NM E OF VA BCH 1850   56 55  210/ 14/ 16  990.1F  11/ 9  10/ 9
DUCK PIER NC     1836   57 46  240/  6/  8  989.7F
44100 DUCK FRF   1835      49                N/A     9/ 8   3/11
44056 DUCK FRF   1830      47                N/A     6/ 9   3/11
OREGON INLET NC  1836   51 51  180/  6/  9  990.3F
HATTERAS NC      1848      56  240/  9/ 11  990.5F
DIAMOND SHLS NC  1850   64 76  220/ 17/ 23  991.0F   8/13   5/13
CAPE LOOKOUT NC  1800   61     260/  6/  7  990.7F
$$



USA.gov is the U.S. government's official web portal to all federal, state and local government web resources and services.